TOPSWRTT 000
TTAA00 KICT 220212

Wichita AWIPS Roundup
National Weather Service Wichita KS
800 PM CST FRI NOV 21 2014

....Central Kansas....
  
CITY           SKY/WX    TMP DP  RH WIND       PRES   REMARKS
RUSSELL        CLOUDY    38  37  97 S8        29.99S FOG     WCI  32  
SALINA         FOG       39  38  96 SE6       30.03F VSB 1/4 WCI  35  
GREAT BEND     CLOUDY    39  34  81 SE8       30.01F WCI  34          
ELLSWORTH      CLOUDY    37  37 100 CALM      30.01S FOG              
MCPHERSON      NOT AVBL                                               
HAYS           CLOUDY    41  32  70 S8        30.00R WCI  36          

....South Central Kansas....
  
CITY           SKY/WX    TMP DP  RH WIND       PRES   REMARKS
HUTCHINSON     FOG       41  39  93 CALM      30.03S VSB 1/4          
NEWTON         CLOUDY    43  39  87 S3        30.05R VSB 1/2          
KINGMAN        CLOUDY    43  43 100 S6        30.03R FOG     WCI  39  
WICHITA (ICT)  FOG       45  44  97 SW5       30.03S VSB 1/4          
JABARA ARPT    CLOUDY    45  45 100 S3        30.03S FOG              
MCCONNELL AFB  FOG       46  46 100 S3        30.03S VSB 3/4          
EL DORADO      FOG       48  46  93 S5        30.03S VSB 3/4          
HARPER           N/A     42  41  97 SW6       30.06S WCI  38          
WELLINGTON     FOG       46  45  93 W3        30.05S VSB 1/4          
WINFIELD       FOG       47  47 100 CALM      30.05S VSB 3/4          
 
....Southeast Kansas....
  
CITY           SKY/WX    TMP DP  RH WIND       PRES   REMARKS
EUREKA         FOG       45  45 100 CALM      30.04S VSB 1/4          
CHANUTE        CLOUDY    54  51  90 SE12      30.07S                  
PARSONS        CLOUDY    54  52  93 S10G18    30.09R                  
COFFEYVILLE    LGT RAIN  53  51  93 S14       30.08F                  
INDEPENDENCE   CLOUDY    52  50  93 SE9       30.07S                  
FORT SCOTT     CLOUDY    52  46  82 SE10      30.07F                  
PITTSBURG      CLOUDY    54  48  82 S8        30.09S                  

....Western Kansas....
  
CITY           SKY/WX    TMP DP  RH WIND       PRES   REMARKS
GOODLAND       CLEAR     43  28  55 SW8       29.94R WCI  38          
HILL CITY      CLEAR     35  31  85 E5        29.98S WCI  31          
LIBERAL        MOCLDY    45  32  61 E8        29.99S                  
GARDEN CITY    MOCLDY    38  34  85 S9        29.95S WCI  31          
DODGE CITY     MOCLDY    35  33  92 S9        29.99S FOG     WCI  28  
PRATT          CLOUDY    37  37 100 SW5       30.03R FOG     WCI  34  
MEDICINE LODGE   N/A     40  40 100 CALM      30.03S                  

....Northeast Kansas....
  
CITY           SKY/WX    TMP DP  RH WIND       PRES   REMARKS
CONCORDIA      CLOUDY    35  35 100 CALM      30.02S FOG              
TOPEKA         CLOUDY    41  39  93 CALM      30.06F FOG              
MANHATTAN      FOG       36  36 100 NE3       30.05F VSB 1/4          
LAWRENCE       CLOUDY    43  39  86 E7        30.06F WCI  39          
OLATHE         CLOUDY    45  41  86 SE9       30.06F                  
EMPORIA        FOG       41  41 100 CALM      30.04S VSB 1/4          

....Oklahoma....
  
CITY           SKY/WX    TMP DP  RH WIND       PRES   REMARKS
GAGE           FOG       40  40 100 S7        30.03R VSB 1/2 WCI  35  
PONCA CITY     CLOUDY    48  47  96 CALM      30.05R FOG              
BARTLESVILLE   LGT RAIN  52  51  97 S14G21    30.09R                  
TULSA          CLOUDY    53  51  93 SE10      30.08R                  
OKLAHOMA CITY  CLOUDY    60  56  86 S12       30.04S                  

Note: "fair" indicates few or no clouds below 12,000 feet with no
significant weather and/or obstructions to visibility.

USA.gov is the U.S. government's official web portal to all federal, state and local government web resources and services.